QPF
0.01 0.01 0.02 0.02 0.03 0.04 0.07 0.06 0.03 0.03 0.05 0.04 0.04 0.05 0.08 0.06 0.08 0.10 0.04 0.02 0.02 0.02 0.03 0.05 0.05 0.04 0.04 0.04 0.05 0.06 0.06 0.05 0.04 0.03 0.04 0.03 0.03 0.04 0.03 0.04 0.06 0.06 0.04
0.02 0.04 0.05 0.02 0.02 0.03 0.04 0.03 0.04 0.04 0.04 0.04 0.04 0.05 0.08 0.07 0.07 0.09 0.05 0.04 0.04 0.02 0.03 0.05 0.06 0.05 0.05 0.05 0.07 0.07 0.07 0.07 0.08 0.06 0.04 0.04 0.05 0.06 0.06 0.04 0.06 0.07 0.04
0.02 0.02 0.02 0.01 0.01 0.02 0.02 0.02 0.02 0.03 0.04 0.04 0.05 0.06 0.07 0.08 0.08 0.07 0.05 0.05 0.04 0.06 0.04 0.04 0.05 0.05 0.05 0.05 0.07 0.07 0.06 0.06 0.07 0.07 0.06 0.05 0.04 0.05 0.06 0.05 0.04 0.05 0.06
0.03 0.02 0.01 0.01 0.01 0.01 0.02 0.01 0.01 0.03 0.04 0.06 0.07 0.10 0.07 0.07 0.06 0.05 0.05 0.04 0.04 0.04 0.03 0.03 0.03 0.03 0.02 0.03 0.04 0.05 0.05 0.05 0.06 0.07 0.07 0.06 0.05 0.05 0.05 0.04 0.04 0.04 0.05
0.03 0.02 0.01 0.01 0.01 0.01 0.02 0.01 0.01 0.01 0.03 0.04 0.04 0.05 0.05 0.07 0.07 0.06 0.05 0.04 0.03 0.03 0.03 0.02 0.02 0.02 0.02 0.02 0.04 0.05 0.05 0.03 0.04 0.05 0.06 0.06 0.06 0.07 0.07 0.05 0.04 0.04 0.05
0.02 0.02 0.01 0.01 0.01 0.02 0.02 0.02 0.02 0.03 0.03 0.03 0.02 0.04 0.07 0.07 0.06 0.05 0.05 0.04 0.04 0.04 0.03 0.02 0.02 0.01 0.01 0.02 0.03 0.04 0.05 0.04 0.03 0.04 0.06 0.06 0.06 0.08 0.11 0.10 0.05 0.04 0.03
0.02 0.02 0.01 0.02 0.02 0.02 0.02 0.03 0.04 0.03 0.03 0.03 0.04 0.04 0.03 0.04 0.04 0.04 0.05 0.05 0.03 0.03 0.02 0.02 0.02 0.01 0.02 0.02 0.02 0.04 0.05 0.04 0.05 0.07 0.07 0.06 0.05 0.07 0.08 0.09 0.08 0.04 0.03
0.04 0.04 0.03 0.04 0.04 0.03 0.02 0.04 0.06 0.04 0.04 0.03 0.03 0.03 0.03 0.03 0.03 0.02 0.02 0.02 0.03 0.04 0.05 0.05 0.04 0.05 0.05 0.03 0.04 0.04 0.05 0.06 0.08 0.07 0.06 0.06 0.07 0.05 0.05 0.05 0.05 0.05 0.04
0.03 0.03 0.03 0.04 0.05 0.04 0.04 0.04 0.06 0.05 0.04 0.04 0.05 0.05 0.04 0.04 0.02 0.02 0.02 0.02 0.03 0.05 0.07 0.07 0.06 0.05 0.05 0.04 0.03 0.04 0.05 0.05 0.06 0.06 0.05 0.04 0.06 0.06 0.03 0.04 0.05 0.06 0.04
0.04 0.04 0.04 0.05 0.05 0.04 0.04 0.04 0.05 0.06 0.05 0.04 0.05 0.03 0.04 0.05 0.04 0.03 0.02 0.03 0.04 0.07 0.10 0.10 0.08 0.06 0.05 0.05 0.05 0.05 0.04 0.03 0.03 0.03 0.03 0.03 0.02 0.02 0.02 0.02 0.03 0.04 0.05
0.07 0.07 0.07 0.07 0.06 0.05 0.06 0.05 0.05 0.07 0.08 0.07 0.05 0.04 0.04 0.04 0.03 0.03 0.03 0.03 0.03 0.05 0.09 0.10 0.12 0.08 0.06 0.06 0.05 0.05 0.03 0.03 0.03 0.02 0.02 0.03 0.02 0.01 0.01 0.01 0.02 0.02 0.05
0.09 0.10 0.09 0.08 0.07 0.07 0.08 0.08 0.07 0.08 0.10 0.08 0.06 0.07 0.06 0.06 0.03 0.02 0.02 0.03 0.03 0.04 0.06 0.07 0.08 0.09 0.09 0.08 0.06 0.06 0.04 0.03 0.02 0.02 0.02 0.02 0.02 0.02 0.02 0.02 0.02 0.02 0.02
0.09 0.13 0.13 0.10 0.07 0.07 0.08 0.10 0.09 0.08 0.09 0.08 0.05 0.07 0.07 0.05 0.05 0.04 0.04 0.04 0.05 0.04 0.05 0.05 0.05 0.06 0.09 0.11 0.09 0.07 0.04 0.04 0.03 0.02 0.01 0.01 0.01 0.01 0.01 0.02 0.02 0.02 0.02
0.05 0.06 0.07 0.07 0.06 0.07 0.09 0.12 0.13 0.10 0.08 0.07 0.06 0.06 0.05 0.04 0.08 0.07 0.06 0.06 0.05 0.05 0.05 0.04 0.05 0.06 0.07 0.08 0.09 0.06 0.04 0.04 0.03 0.02 0.02 0.01 0.01 0.00 0.00 0.01 0.01 0.01 0.02
0.04 0.04 0.05 0.06 0.06 0.07 0.09 0.10 0.09 0.08 0.08 0.08 0.07 0.06 0.04 0.04 0.06 0.06 0.08 0.09 0.07 0.05 0.03 0.04 0.06 0.06 0.05 0.04 0.06 0.08 0.07 0.05 0.04 0.03 0.02 0.01 0.00 0.00 0.00 0.00 0.01 0.01 0.01
0.03 0.03 0.03 0.04 0.05 0.06 0.07 0.08 0.07 0.07 0.07 0.07 0.07 0.08 0.06 0.06 0.07 0.07 0.07 0.08 0.08 0.06 0.04 0.04 0.03 0.02 0.02 0.03 0.04 0.04 0.06 0.08 0.05 0.02 0.02 0.01 0.00 0.00 0.00 0.00 0.00 0.01 0.01
0.02 0.02 0.03 0.04 0.03 0.04 0.04 0.04 0.05 0.06 0.06 0.06 0.07 0.06 0.05 0.06 0.07 0.07 0.06 0.08 0.07 0.06 0.03 0.02 0.01 0.02 0.04 0.02 0.03 0.04 0.04 0.05 0.06 0.04 0.02 0.01 0.01 0.00 0.00 0.00 0.00 0.00 0.01
0.02 0.03 0.04 0.04 0.05 0.05 0.04 0.04 0.05 0.05 0.05 0.04 0.04 0.06 0.05 0.06 0.06 0.07 0.06 0.06 0.06 0.05 0.04 0.02 0.02 0.02 0.03 0.02 0.02 0.03 0.02 0.02 0.02 0.04 0.03 0.02 0.01 0.01 0.00 0.00 0.00 0.00 0.01
0.05 0.05 0.06 0.06 0.08 0.09 0.09 0.06 0.06 0.05 0.05 0.06 0.05 0.05 0.06 0.06 0.06 0.08 0.08 0.08 0.07 0.05 0.04 0.04 0.02 0.02 0.02 0.03 0.03 0.03 0.02 0.01 0.01 0.02 0.03 0.03 0.02 0.01 0.01 0.01 0.01 0.01 0.01
0.07 0.07 0.07 0.07 0.07 0.07 0.05 0.04 0.04 0.04 0.04 0.05 0.05 0.05 0.05 0.06 0.07 0.09 0.09 0.09 0.07 0.06 0.05 0.05 0.04 0.03 0.03 0.03 0.04 0.03 0.03 0.01 0.01 0.02 0.03 0.03 0.02 0.02 0.02 0.01 0.01 0.01 0.01
0.08 0.09 0.07 0.06 0.06 0.05 0.03 0.04 0.04 0.03 0.03 0.03 0.03 0.04 0.05 0.06 0.06 0.07 0.07 0.07 0.07 0.06 0.05 0.06 0.04 0.03 0.03 0.04 0.03 0.03 0.03 0.02 0.02 0.02 0.03 0.03 0.03 0.03 0.03 0.03 0.02 0.02 0.01
0.13 0.13 0.07 0.05 0.05 0.04 0.03 0.04 0.04 0.03 0.02 0.03 0.04 0.04 0.05 0.04 0.03 0.03 0.03 0.04 0.06 0.06 0.05 0.05 0.04 0.03 0.03 0.03 0.03 0.04 0.03 0.03 0.02 0.02 0.03 0.04 0.06 0.04 0.04 0.03 0.02 0.03 0.02
0.14 0.09 0.05 0.05 0.04 0.03 0.04 0.03 0.03 0.03 0.02 0.02 0.02 0.02 0.02 0.01 0.01 0.01 0.02 0.03 0.04 0.04 0.05 0.05 0.04 0.04 0.05 0.03 0.04 0.05 0.04 0.03 0.02 0.03 0.04 0.04 0.04 0.03 0.03 0.04 0.04 0.03 0.03
0.09 0.07 0.05 0.05 0.05 0.04 0.04 0.03 0.02 0.01 0.01 0.01 0.01 0.01 0.01 0.01 0.02 0.01 0.01 0.02 0.02 0.02 0.03 0.03 0.02 0.02 0.02 0.03 0.03 0.03 0.04 0.04 0.04 0.04 0.05 0.03 0.03 0.03 0.04 0.04 0.04 0.04 0.03
0.07 0.06 0.05 0.05 0.05 0.05 0.04 0.04 0.02 0.01 0.01 0.01 0.01 0.01 0.01 0.01 0.01 0.01 0.01 0.01 0.02 0.02 0.03 0.04 0.04 0.03 0.03 0.03 0.04 0.04 0.04 0.04 0.03 0.03 0.04 0.03 0.02 0.03 0.04 0.04 0.05 0.05 0.04
0.10 0.10 0.08 0.07 0.06 0.04 0.03 0.03 0.02 0.01 0.01 0.01 0.01 0.00 0.02 0.01 0.01 0.01 0.00 0.01 0.02 0.02 0.03 0.04 0.06 0.06 0.06 0.05 0.04 0.04 0.04 0.05 0.05 0.04 0.03 0.05 0.04 0.05 0.05 0.04 0.04 0.04 0.04
MSLP
1014.42 1014.31 1014.13 1013.90 1013.66 1013.45 1013.30 1013.20 1013.15 1013.14 1013.13 1013.11 1013.07 1013.00 1012.92 1012.85 1012.81 1012.82 1012.89 1013.02 1013.18 1013.36 1013.55 1013.72 1013.86 1013.99 1014.10 1014.20 1014.30 1014.42 1014.55 1014.70 1014.87 1015.04 1015.23 1015.40 1015.57 1015.73 1015.87 1015.99 1016.09 1016.18 1016.27
1014.36 1014.27 1014.10 1013.90 1013.68 1013.47 1013.29 1013.16 1013.08 1013.02 1012.98 1012.93 1012.85 1012.75 1012.64 1012.53 1012.44 1012.39 1012.40 1012.48 1012.60 1012.77 1012.97 1013.18 1013.37 1013.55 1013.70 1013.82 1013.92 1014.01 1014.10 1014.20 1014.31 1014.44 1014.60 1014.77 1014.94 1015.11 1015.27 1015.41 1015.52 1015.62 1015.71
1014.32 1014.24 1014.09 1013.91 1013.70 1013.50 1013.31 1013.16 1013.04 1012.95 1012.87 1012.78 1012.68 1012.56 1012.42 1012.27 1012.13 1012.02 1011.96 1011.96 1012.03 1012.17 1012.35 1012.57 1012.80 1013.01 1013.20 1013.35 1013.46 1013.53 1013.59 1013.65 1013.72 1013.81 1013.93 1014.08 1014.25 1014.42 1014.59 1014.74 1014.87 1014.98 1015.07
1014.32 1014.23 1014.11 1013.95 1013.76 1013.57 1013.38 1013.21 1013.06 1012.94 1012.84 1012.73 1012.62 1012.48 1012.32 1012.14 1011.95 1011.77 1011.63 1011.55 1011.54 1011.60 1011.74 1011.93 1012.16 1012.39 1012.60 1012.77 1012.89 1012.97 1013.01 1013.04 1013.07 1013.13 1013.22 1013.35 1013.50 1013.68 1013.85 1014.01 1014.15 1014.27 1014.38
1014.33 1014.24 1014.13 1014.00 1013.84 1013.67 1013.49 1013.32 1013.16 1013.03 1012.90 1012.79 1012.67 1012.54 1012.37 1012.17 1011.94 1011.70 1011.48 1011.30 1011.18 1011.15 1011.20 1011.32 1011.51 1011.72 1011.92 1012.10 1012.23 1012.31 1012.34 1012.36 1012.37 1012.41 1012.48 1012.58 1012.72 1012.89 1013.06 1013.23 1013.38 1013.51 1013.63
1014.31 1014.21 1014.12 1014.02 1013.91 1013.78 1013.63 1013.47 1013.32 1013.18 1013.06 1012.96 1012.85 1012.73 1012.57 1012.37 1012.12 1011.83 1011.53 1011.25 1011.01 1010.85 1010.78 1010.80 1010.90 1011.05 1011.21 1011.36 1011.48 1011.55 1011.59 1011.60 1011.61 1011.64 1011.69 1011.79 1011.92 1012.07 1012.24 1012.40 1012.56 1012.70 1012.84
1014.20 1014.10 1014.03 1013.98 1013.92 1013.84 1013.73 1013.61 1013.49 1013.37 1013.27 1013.19 1013.12 1013.03 1012.90 1012.72 1012.46 1012.14 1011.78 1011.40 1011.05 1010.75 1010.54 1010.42 1010.39 1010.43 1010.51 1010.60 1010.68 1010.74 1010.77 1010.79 1010.80 1010.83 1010.88 1010.97 1011.09 1011.24 1011.40 1011.56 1011.71 1011.85 1011.99
1013.96 1013.85 1013.81 1013.81 1013.81 1013.80 1013.75 1013.68 1013.60 1013.52 1013.46 1013.42 1013.39 1013.35 1013.27 1013.12 1012.89 1012.57 1012.16 1011.71 1011.25 1010.82 1010.46 1010.18 1010.00 1009.90 1009.87 1009.87 1009.89 1009.92 1009.93 1009.95 1009.97 1010.00 1010.07 1010.16 1010.28 1010.42 1010.56 1010.71 1010.84 1010.98 1011.11
1013.54 1013.45 1013.45 1013.49 1013.56 1013.61 1013.64 1013.63 1013.60 1013.58 1013.56 1013.57 1013.60 1013.61 1013.59 1013.50 1013.31 1013.00 1012.59 1012.09 1011.55 1011.01 1010.51 1010.08 1009.75 1009.50 1009.33 1009.23 1009.17 1009.14 1009.13 1009.13 1009.16 1009.21 1009.29 1009.39 1009.51 1009.63 1009.76 1009.88 1009.99 1010.09 1010.20
1012.99 1012.91 1012.93 1013.03 1013.15 1013.27 1013.36 1013.41 1013.44 1013.47 1013.51 1013.57 1013.64 1013.72 1013.76 1013.73 1013.60 1013.33 1012.94 1012.44 1011.86 1011.24 1010.64 1010.09 1009.61 1009.23 1008.93 1008.71 1008.56 1008.46 1008.41 1008.40 1008.43 1008.49 1008.58 1008.69 1008.80 1008.92 1009.02 1009.10 1009.16 1009.22 1009.28
1012.33 1012.27 1012.32 1012.45 1012.62 1012.78 1012.92 1013.03 1013.11 1013.18 1013.26 1013.36 1013.49 1013.61 1013.71 1013.74 1013.67 1013.46 1013.12 1012.64 1012.07 1011.43 1010.77 1010.14 1009.56 1009.07 1008.65 1008.33 1008.08 1007.92 1007.82 1007.78 1007.80 1007.87 1007.97 1008.08 1008.20 1008.29 1008.36 1008.40 1008.41 1008.41 1008.41
1011.64 1011.59 1011.66 1011.80 1011.99 1012.19 1012.36 1012.50 1012.61 1012.71 1012.82 1012.95 1013.10 1013.27 1013.41 1013.49 1013.48 1013.34 1013.06 1012.64 1012.11 1011.50 1010.84 1010.19 1009.56 1008.99 1008.49 1008.08 1007.76 1007.52 1007.37 1007.31 1007.31 1007.37 1007.47 1007.59 1007.69 1007.77 1007.81 1007.80 1007.76 1007.68 1007.60
1010.96 1010.92 1010.99 1011.14 1011.33 1011.52 1011.70 1011.85 1011.97 1012.08 1012.21 1012.35 1012.52 1012.71 1012.88 1013.00 1013.04 1012.96 1012.76 1012.42 1011.97 1011.43 1010.82 1010.19 1009.56 1008.97 1008.43 1007.96 1007.58 1007.28 1007.08 1006.97 1006.95 1007.00 1007.09 1007.19 1007.29 1007.35 1007.36 1007.31 1007.20 1007.06 1006.91
1010.32 1010.29 1010.34 1010.47 1010.64 1010.81 1010.98 1011.12 1011.24 1011.36 1011.48 1011.63 1011.80 1011.99 1012.16 1012.31 1012.39 1012.38 1012.25 1012.01 1011.66 1011.21 1010.70 1010.13 1009.55 1008.98 1008.44 1007.94 1007.52 1007.17 1006.92 1006.77 1006.71 1006.72 1006.79 1006.88 1006.96 1007.01 1006.99 1006.90 1006.75 1006.55 1006.32
1009.67 1009.64 1009.69 1009.79 1009.93 1010.08 1010.22 1010.34 1010.46 1010.57 1010.69 1010.84 1011.00 1011.18 1011.36 1011.52 1011.63 1011.67 1011.61 1011.47 1011.22 1010.89 1010.49 1010.03 1009.53 1009.01 1008.49 1008.00 1007.55 1007.16 1006.86 1006.65 1006.54 1006.52 1006.55 1006.61 1006.67 1006.70 1006.66 1006.55 1006.37 1006.12 1005.85
1008.95 1008.94 1008.98 1009.06 1009.17 1009.30 1009.42 1009.54 1009.65 1009.76 1009.89 1010.04 1010.20 1010.38 1010.56 1010.72 1010.85 1010.92 1010.93 1010.87 1010.73 1010.52 1010.24 1009.89 1009.49 1009.04 1008.57 1008.09 1007.62 1007.20 1006.85 1006.59 1006.42 1006.33 1006.32 1006.35 1006.38 1006.38 1006.33 1006.21 1006.01 1005.75 1005.45
1008.07 1008.09 1008.14 1008.23 1008.33 1008.45 1008.57 1008.70 1008.83 1008.96 1009.12 1009.28 1009.45 1009.64 1009.81 1009.98 1010.12 1010.23 1010.29 1010.30 1010.25 1010.15 1009.97 1009.74 1009.43 1009.06 1008.64 1008.18 1007.71 1007.26 1006.86 1006.53 1006.29 1006.14 1006.07 1006.04 1006.04 1006.02 1005.95 1005.82 1005.62 1005.36 1005.05
1006.98 1007.05 1007.13 1007.24 1007.37 1007.51 1007.67 1007.84 1008.01 1008.20 1008.39 1008.59 1008.80 1009.00 1009.19 1009.36 1009.51 1009.64 1009.74 1009.80 1009.82 1009.80 1009.72 1009.57 1009.35 1009.04 1008.67 1008.23 1007.76 1007.29 1006.84 1006.44 1006.13 1005.91 1005.76 1005.68 1005.62 1005.57 1005.49 1005.35 1005.16 1004.90 1004.60
1005.67 1005.80 1005.95 1006.12 1006.31 1006.52 1006.74 1006.98 1007.22 1007.48 1007.74 1007.99 1008.24 1008.47 1008.68 1008.87 1009.03 1009.17 1009.29 1009.38 1009.45 1009.48 1009.46 1009.38 1009.22 1008.97 1008.64 1008.22 1007.75 1007.25 1006.76 1006.31 1005.93 1005.62 1005.40 1005.24 1005.13 1005.04 1004.93 1004.78 1004.59 1004.34 1004.06
1004.21 1004.42 1004.65 1004.92 1005.20 1005.50 1005.82 1006.16 1006.50 1006.84 1007.18 1007.50 1007.80 1008.06 1008.30 1008.50 1008.66 1008.80 1008.93 1009.03 1009.12 1009.18 1009.20 1009.16 1009.04 1008.83 1008.52 1008.12 1007.66 1007.14 1006.62 1006.12 1005.67 1005.30 1005.00 1004.77 1004.59 1004.44 1004.29 1004.12 1003.92 1003.68 1003.40
1002.74 1003.04 1003.38 1003.75 1004.15 1004.57 1005.00 1005.44 1005.88 1006.32 1006.73 1007.12 1007.47 1007.76 1008.02 1008.22 1008.38 1008.52 1008.63 1008.73 1008.81 1008.88 1008.91 1008.88 1008.79 1008.60 1008.32 1007.94 1007.48 1006.96 1006.42 1005.88 1005.39 1004.95 1004.59 1004.29 1004.04 1003.83 1003.62 1003.41 1003.19 1002.93 1002.65
1001.46 1001.84 1002.28 1002.77 1003.29 1003.83 1004.37 1004.92 1005.45 1005.97 1006.44 1006.88 1007.25 1007.57 1007.82 1008.02 1008.17 1008.28 1008.37 1008.44 1008.51 1008.56 1008.58 1008.55 1008.46 1008.29 1008.03 1007.67 1007.23 1006.72 1006.18 1005.63 1005.11 1004.63 1004.21 1003.84 1003.53 1003.25 1002.98 1002.72 1002.45 1002.16 1001.86
1000.55 1001.00 1001.53 1002.12 1002.75 1003.39 1004.03 1004.66 1005.26 1005.82 1006.33 1006.78 1007.16 1007.48 1007.71 1007.88 1008.00 1008.08 1008.13 1008.17 1008.20 1008.22 1008.21 1008.18 1008.09 1007.93 1007.69 1007.36 1006.94 1006.46 1005.94 1005.40 1004.87 1004.36 1003.90 1003.48 1003.10 1002.76 1002.43 1002.10 1001.78 1001.44 1001.10
1000.19 1000.68 1001.27 1001.93 1002.63 1003.33 1004.03 1004.70 1005.33 1005.91 1006.41 1006.85 1007.20 1007.48 1007.68 1007.81 1007.88 1007.91 1007.91 1007.91 1007.89 1007.88 1007.85 1007.80 1007.71 1007.56 1007.34 1007.04 1006.67 1006.22 1005.73 1005.21 1004.69 1004.17 1003.69 1003.23 1002.80 1002.39 1002.00 1001.61 1001.22 1000.83 1000.44
1000.43 1000.93 1001.54 1002.23 1002.95 1003.68 1004.38 1005.05 1005.66 1006.20 1006.67 1007.05 1007.35 1007.57 1007.71 1007.78 1007.80 1007.78 1007.73 1007.68 1007.63 1007.58 1007.54 1007.47 1007.38 1007.24 1007.05 1006.78 1006.44 1006.04 1005.59 1005.10 1004.59 1004.08 1003.57 1003.08 1002.61 1002.16 1001.71 1001.26 1000.81 1000.37 999.92
1001.23 1001.70 1002.29 1002.96 1003.65 1004.35 1005.01 1005.63 1006.18 1006.66 1007.05 1007.36 1007.58 1007.73 1007.80 1007.81 1007.77 1007.70 1007.61 1007.52 1007.44 1007.37 1007.30 1007.23 1007.14 1007.02 1006.84 1006.61 1006.31 1005.94 1005.52 1005.05 1004.56 1004.04 1003.53 1003.01 1002.51 1002.01 1001.51 1001.02 1000.52 1000.03 999.53
Thickness
5778 5777 5775 5774 5774 5773 5771 5770 5769 5768 5767 5766 5766 5766 5765 5765 5764 5762 5762 5760 5758 5755 5754 5752 5750 5748 5746 5745 5744 5742 5740 5739 5738 5737 5736 5735 5734 5733 5732 5731 5729 5728 5727
5778 5777 5775 5774 5773 5773 5771 5770 5769 5768 5767 5767 5767 5767 5766 5765 5765 5763 5762 5760 5758 5756 5754 5752 5750 5748 5746 5745 5744 5742 5741 5740 5739 5738 5736 5735 5734 5733 5732 5731 5729 5728 5727
5779 5777 5775 5774 5773 5773 5771 5770 5769 5768 5768 5768 5767 5767 5767 5767 5765 5764 5762 5761 5758 5756 5755 5753 5751 5749 5747 5746 5745 5743 5741 5740 5739 5737 5736 5735 5734 5733 5732 5731 5729 5728 5727
5779 5777 5775 5774 5773 5772 5771 5769 5768 5766 5766 5766 5766 5767 5767 5767 5766 5764 5763 5761 5759 5757 5755 5753 5751 5749 5748 5747 5746 5744 5742 5740 5739 5737 5736 5736 5734 5733 5732 5731 5729 5728 5728
5779 5777 5775 5774 5773 5772 5770 5769 5768 5766 5763 5763 5764 5765 5766 5765 5765 5764 5763 5761 5759 5758 5756 5754 5752 5750 5748 5747 5745 5744 5742 5740 5739 5738 5737 5736 5735 5734 5732 5731 5730 5728 5727
5779 5777 5775 5774 5772 5770 5769 5768 5766 5765 5763 5762 5763 5763 5763 5763 5763 5762 5761 5760 5759 5757 5756 5754 5751 5749 5748 5746 5744 5743 5742 5739 5739 5737 5736 5735 5734 5733 5732 5731 5730 5728 5727
5778 5777 5775 5773 5771 5769 5767 5766 5765 5762 5761 5761 5757 5755 5758 5761 5760 5760 5759 5758 5757 5756 5755 5753 5751 5749 5747 5745 5744 5742 5741 5739 5737 5736 5735 5735 5734 5733 5732 5730 5729 5728 5727
5777 5776 5774 5772 5770 5768 5766 5765 5763 5759 5758 5758 5752 5747 5743 5747 5753 5758 5756 5755 5755 5754 5753 5751 5749 5747 5745 5744 5742 5740 5739 5737 5736 5735 5734 5734 5733 5732 5730 5729 5728 5727 5727
5776 5775 5773 5771 5769 5767 5764 5763 5762 5758 5754 5754 5753 5746 5738 5734 5741 5749 5751 5752 5751 5749 5749 5748 5746 5745 5743 5741 5740 5738 5736 5735 5734 5734 5733 5733 5732 5731 5730 5728 5728 5727 5726
5774 5773 5772 5769 5768 5766 5764 5762 5761 5758 5754 5749 5749 5748 5745 5742 5736 5736 5742 5746 5746 5745 5744 5744 5742 5742 5741 5739 5738 5736 5735 5733 5732 5732 5731 5730 5730 5729 5728 5727 5726 5725 5724
5772 5771 5769 5767 5765 5763 5762 5760 5758 5756 5753 5749 5746 5743 5741 5740 5738 5732 5730 5735 5738 5741 5741 5740 5739 5738 5737 5736 5735 5733 5732 5731 5730 5729 5728 5728 5727 5727 5726 5725 5724 5724 5723
5768 5767 5766 5764 5763 5761 5759 5757 5756 5754 5751 5748 5745 5742 5738 5735 5733 5729 5726 5727 5728 5733 5736 5736 5735 5735 5734 5733 5732 5731 5729 5728 5727 5726 5725 5724 5724 5723 5723 5722 5722 5721 5721
5763 5763 5763 5761 5760 5759 5757 5755 5753 5750 5748 5745 5742 5740 5738 5736 5734 5730 5725 5723 5723 5726 5729 5730 5731 5730 5730 5729 5728 5727 5726 5724 5723 5723 5722 5721 5720 5719 5719 5719 5718 5718 5718
5762 5761 5760 5759 5758 5756 5754 5752 5749 5747 5745 5742 5740 5737 5735 5733 5732 5729 5725 5721 5717 5717 5720 5722 5725 5725 5725 5724 5724 5723 5722 5721 5720 5719 5718 5717 5716 5715 5715 5714 5714 5714 5714
5761 5759 5758 5756 5754 5752 5750 5748 5745 5742 5740 5738 5735 5733 5731 5730 5729 5727 5725 5721 5714 5709 5710 5715 5717 5720 5720 5719 5720 5719 5717 5716 5716 5714 5714 5712 5711 5711 5710 5710 5710 5710 5710
5757 5755 5753 5751 5749 5747 5745 5742 5740 5737 5734 5732 5731 5728 5726 5725 5724 5722 5720 5718 5715 5710 5706 5709 5711 5714 5714 5715 5715 5714 5713 5712 5711 5710 5710 5708 5707 5707 5706 5706 5706 5706 5706
5753 5750 5748 5745 5743 5741 5738 5736 5733 5731 5728 5726 5725 5723 5721 5721 5718 5716 5715 5712 5710 5707 5702 5704 5706 5708 5708 5707 5708 5708 5708 5707 5706 5706 5705 5704 5703 5702 5702 5701 5701 5701 5701
5747 5745 5742 5739 5737 5734 5732 5729 5727 5725 5722 5720 5718 5717 5716 5716 5713 5711 5709 5706 5705 5703 5699 5697 5699 5700 5700 5701 5702 5701 5702 5702 5702 5702 5701 5700 5699 5698 5697 5697 5696 5696 5696
5740 5738 5735 5732 5729 5727 5726 5724 5722 5720 5717 5714 5713 5711 5710 5708 5706 5705 5703 5701 5699 5699 5696 5693 5691 5693 5693 5694 5694 5694 5695 5696 5697 5697 5696 5695 5694 5693 5692 5691 5691 5691 5690
5733 5730 5728 5726 5723 5721 5720 5718 5716 5713 5711 5708 5707 5706 5704 5702 5700 5698 5697 5695 5693 5691 5689 5686 5684 5684 5685 5687 5686 5684 5685 5687 5688 5690 5690 5689 5689 5688 5687 5686 5686 5686 5685
5727 5724 5721 5718 5717 5715 5714 5711 5709 5706 5703 5701 5700 5698 5698 5696 5695 5692 5691 5688 5686 5683 5681 5679 5678 5677 5677 5677 5677 5678 5677 5679 5681 5682 5682 5682 5682 5682 5681 5681 5681 5681 5681
5721 5718 5714 5712 5710 5709 5707 5705 5702 5699 5697 5694 5692 5691 5690 5689 5688 5686 5684 5683 5681 5678 5675 5673 5672 5671 5671 5671 5672 5671 5669 5668 5669 5675 5673 5674 5675 5675 5676 5676 5677 5676 5676
5714 5711 5709 5706 5703 5701 5699 5697 5695 5692 5689 5686 5684 5682 5683 5682 5679 5677 5676 5676 5675 5675 5673 5670 5667 5667 5666 5667 5666 5664 5662 5661 5663 5667 5666 5666 5668 5668 5670 5672 5672 5671 5670
5708 5705 5702 5700 5696 5694 5692 5689 5687 5683 5680 5678 5677 5675 5673 5671 5671 5668 5667 5667 5666 5667 5667 5666 5665 5664 5664 5663 5661 5660 5658 5657 5659 5660 5660 5657 5660 5661 5664 5665 5665 5665 5665
5702 5699 5697 5693 5690 5687 5685 5683 5679 5675 5672 5670 5669 5667 5665 5663 5662 5661 5658 5657 5657 5659 5661 5661 5660 5660 5659 5659 5657 5653 5651 5648 5648 5651 5653 5651 5652 5652 5654 5656 5658 5658 5658
5696 5693 5690 5686 5684 5681 5679 5676 5672 5668 5664 5662 5661 5660 5659 5656 5655 5653 5650 5648 5648 5649 5650 5651 5651 5652 5652 5652 5651 5648 5645 5642 5641 5642 5646 5644 5643 5643 5644 5647 5649 5650 5650